x

Olcott Harbor, Ny (olcn6) Weather Station

6:00pm - Mon 25th May 2015 All times are CDT. -5 hours from GMT.

  • Wind
    8mph, 11mph gusts
  • Air Temp 80°f
  • Sea Pressure 1014.6mb
  • Olcott Harbor, Ny
  • Olcott Harbor, Ny

More Historic Weather Station data

Upgrade to MSW Pro to gain access to the past 30 days of data for over 8000 Wavebouys and Weather Stations around the globe.

Join Pro

Comparision Forecast

View Surf forecast
   
Mon 05/25 6:00pm 8 11 mph 1014.6mb 80f
5:50pm 6 14 mph 1014.6mb 80f
5:40pm 8 16 mph 1014.6mb 81f
5:30pm 9 15 mph 1014.6mb 81f
5:20pm 10 17 mph 1014.9mb 81f
5:10pm 7 14 mph 1014.9mb 81f
5:00pm 11 20 mph 1014.6mb 81f
4:50pm 11 21 mph 1014.6mb 81f
4:40pm 10 15 mph 1014.6mb 81f
4:30pm 14 21 mph 1014.6mb 81f
4:20pm 9 18 mph 1014.9mb 81f
4:10pm 13 23 mph 1014.9mb 80f
4:00pm 13 22 mph 1015.2mb 80f
3:50pm 13 20 mph 1015.2mb 80f
3:40pm 13 23 mph 1015.6mb 80f
3:30pm 14 23 mph 1015.6mb 80f
3:20pm 14 28 mph 1015.9mb 81f
3:10pm 16 28 mph 1015.6mb 82f
3:00pm 16 26 mph 1015.6mb 81f
2:50pm 15 22 mph 1015.6mb 81f
2:40pm 11 29 mph 1015.6mb 81f
2:30pm 14 23 mph 1015.9mb 81f
2:20pm 10 22 mph 1015.9mb 81f
2:10pm 14 25 mph 1015.9mb 80f
2:00pm 15 23 mph 1015.9mb 80f
1:50pm 15 23 mph 1015.9mb 80f
1:40pm 17 26 mph 1016.3mb 80f
1:30pm 11 25 mph 1016.3mb 80f
1:20pm 14 25 mph 1016.3mb 79f
1:10pm 18 25 mph 1016.3mb 79f
1:00pm 16 26 mph 1016.3mb 79f
12:50pm 15 25 mph 1016.6mb 78f
12:40pm 14 25 mph 1016.6mb 78f
12:30pm 14 24 mph 1016.6mb 78f
12:20pm 15 23 mph 1016.9mb 79f
12:10pm 16 28 mph 1016.6mb 78f
12:00pm 11 26 mph 1016.9mb 79f
11:50am 20 26 mph 1016.9mb 79f
11:40am 15 24 mph 1016.9mb 80f
11:30am 13 22 mph 1016.6mb 80f
11:20am 14 18 mph 1016.9mb 80f
11:10am 13 21 mph 1016.9mb 80f
11:00am 10 22 mph 1016.9mb 80f
10:50am 9 20 mph 1017.3mb 79f
10:40am 11 18 mph 1017.3mb 79f
10:30am 10 21 mph 1017.3mb 78f
10:20am 7 18 mph 1017.3mb 78f
10:10am 8 17 mph 1017.6mb 78f
10:00am 10 17 mph 1017.9mb 77f
9:50am 11 20 mph 1017.9mb 77f
9:40am 15 18 mph 1018.3mb 76f
9:30am 8 14 mph 1018.6mb 75f
9:20am 6 9 mph 1018.6mb 74f
9:10am 7 9 mph 1019mb 73f
9:00am 5 7 mph 1019mb 72f
8:50am 5 7 mph 1019mb 72f
8:40am 5 7 mph 1019mb 71f
8:30am 3 6 mph 1019.3mb 70f
8:20am 3 6 mph 1019.3mb 68f
8:10am 5 7 mph 1019.6mb 63f
8:00am 5 7 mph 1019.6mb 66f
7:50am 2 6 mph 1019.6mb 69f
7:40am 3 6 mph 1019.6mb 69f
7:30am 2 6 mph 1019.6mb 69f
7:20am 5 9 mph 1020mb 68f
7:10am 5 8 mph 1019.6mb 68f
7:00am 6 10 mph 1020mb 67f
6:50am 6 8 mph 1020mb 66f
6:40am 3 7 mph 1020mb 66f
6:30am 7 9 mph 1020mb 65f
6:20am 6 10 mph 1020mb 64f
6:10am 8 11 mph 1020mb 63f
6:00am 6 7 mph 1020mb 63f
5:50am 5 7 mph 1020.3mb 63f
5:40am 6 7 mph 1020mb 63f
5:30am 3 5 mph 1020.3mb 61f
5:20am 5 7 mph 1020.3mb 61f
5:10am 6 7 mph 1020.3mb 60f
5:00am 5 6 mph 1020.3mb 62f
4:50am 5 7 mph 1020.3mb 62f
4:40am 6 7 mph 1020mb 62f
4:30am 6 8 mph 1020.3mb 62f
4:20am 8 9 mph 1020mb 62f
4:10am 7 9 mph 1020mb 63f
4:00am 8 9 mph 1020.3mb 63f
3:50am 8 9 mph 1020.3mb 63f
3:40am 7 8 mph 1020.3mb 63f
3:30am 6 7 mph 1020.7mb 62f
3:20am 8 9 mph 1020.7mb 61f
3:10am 9
mph
1020.7mb 62f
3:00am 6
mph
1021mb 63f
2:50am 6
mph
1021mb 63f
2:40am 1 2 mph 1021mb 63f
2:30am 2 5 mph 1021.3mb 63f
2:20am 3 10 mph 1021.3mb 64f
2:10am 6 8 mph 1021.3mb 65f
2:00am 2 6 mph 1021mb 66f
1:50am 3 6 mph 1021.3mb 67f
1:40am 3 6 mph 1021mb 66f
1:30am 3 7 mph 1021mb 67f
1:20am 6 8 mph 1020.7mb 67f
1:10am 6 7 mph 1021mb 67f
1:00am 6 8 mph 1021mb 67f
12:50am 5 8 mph 1021mb 67f
12:40am 7 9 mph 1021mb 67f
12:30am 3 5 mph 1021mb 67f
12:20am 1 5 mph 1021mb 67f
12:10am 3 8 mph 1021mb 67f
12:00am 5 8 mph 1021mb 67f
Sun 05/24 11:50pm 7 10 mph 1021mb 67f
11:40pm 6 9 mph 1021.3mb 67f
11:30pm 6 10 mph 1021.3mb 67f
11:20pm 8 10 mph 1021.3mb 67f
11:10pm 7 10 mph 1021.3mb 67f
11:00pm 8 11 mph 1021.3mb 68f
10:50pm 8 11 mph 1021mb 68f
10:40pm 8 14 mph 1021.3mb 68f
10:30pm 8 10 mph 1021.3mb 69f
10:20pm 6 11 mph 1021.3mb 69f
10:10pm 7 10 mph 1021.3mb 69f
10:00pm 8 14 mph 1021.3mb 69f
9:50pm 8 11 mph 1021mb 69f
9:40pm 8 13 mph 1021mb 69f
9:30pm 7 11 mph 1021mb 70f
9:20pm 8 10 mph 1021mb 70f
9:10pm 7 9 mph 1021mb 70f
9:00pm 7 9 mph 1021mb 71f
8:50pm 6 9 mph 1021mb 71f
8:40pm 6 10 mph 1021mb 71f
8:30pm 6 9 mph 1021mb 72f
8:20pm 6 9 mph 1021mb 72f
8:10pm 5 9 mph 1021mb 72f
8:00pm 5 8 mph 1021mb 73f
7:50pm 6 8 mph 1021mb 73f
7:40pm 5 10 mph 1021mb 74f
7:30pm 6 10 mph 1021mb 74f
7:20pm 6 11 mph 1021mb 75f
7:10pm 7 14 mph 1021mb 75f
7:00pm 7 11 mph 1021mb 75f
6:50pm 8 13 mph 1021mb 75f
6:40pm 9 11 mph 1021mb 75f
6:30pm 8 14 mph 1021mb 75f
6:20pm 9 14 mph 1021mb 75f
6:10pm 8 13 mph 1021mb 75f
6:00pm 10 16 mph 1021mb 75f
5:50pm 9 17 mph 1021mb 75f
5:40pm 9 16 mph 1021mb 76f
5:30pm 9 18 mph 1021mb 76f
5:20pm 10 17 mph 1021mb 76f
5:10pm 13 21 mph 1021mb 77f
5:00pm 13 20 mph 1021mb 77f
4:50pm 11 17 mph 1021mb 78f
4:40pm 13 21 mph 1021mb 78f
4:30pm 10 17 mph 1021mb 78f
4:20pm 10 16 mph 1021mb 78f
4:10pm 10 16 mph 1021mb 78f
4:00pm 10 15 mph 1021.3mb 78f
3:50pm 11 16 mph 1021.3mb 78f
3:40pm 11 20 mph 1021.7mb 78f
3:30pm 14 18 mph 1021.3mb 78f
3:20pm 11 20 mph 1021.7mb 78f
3:10pm 13 17 mph 1021.7mb 79f
3:00pm 11 21 mph 1021.7mb 79f
2:50pm 10 16 mph 1022mb 78f
2:40pm 7 13 mph 1022mb 76f
2:30pm 7 10 mph 1022.4mb 73f
2:20pm 6 11 mph 1022.4mb 73f
2:10pm 6 13 mph 1022.7mb 71f
2:00pm 9 15 mph 1022.7mb 78f
1:50pm 13 17 mph 1022.7mb 77f
1:40pm 7 15 mph 1023mb 75f
1:30pm 9 16 mph 1023mb 69f
1:20pm 8 14 mph 1023mb 68f
1:10pm 9 13 mph 1023mb 69f
1:00pm 8 15 mph 1023.4mb 69f
12:50pm 9 16 mph 1023.4mb 68f
12:40pm 10 18 mph 1023.7mb 71f
12:30pm 8 11 mph 1023.4mb 68f
12:20pm 7 15 mph 1023.7mb 68f
12:10pm 16 22 mph 1024mb -
12:00pm 3 7 mph 1024mb 65f
11:50am 6 11 mph 1024mb 67f
11:40am 8 13 mph 1024mb -
11:30am 5 8 mph 1024mb 64f
11:20am 2 9 mph 1024mb 63f
11:10am 5 8 mph 1024mb 60f
11:00am 7 8 mph 1024mb 61f
10:50am 2 11 mph 1024mb 61f
10:40am 7 15 mph 1024mb 68f
10:30am 10 14 mph 1024mb 64f
10:20am 10 11 mph 1024mb 65f
10:10am 7 13 mph 1024.4mb 69f
10:00am 8 15 mph 1024.4mb 69f
9:50am 5 13 mph 1024.4mb 71f
9:40am 8 15 mph 1024.4mb 71f
9:30am 9 16 mph 1024.4mb 71f
9:20am 9 16 mph 1024.7mb 71f
9:10am 7 15 mph 1024.7mb 70f
9:00am 10 15 mph 1024.7mb 69f
8:50am 9 15 mph 1024.7mb 68f
8:40am 9 15 mph 1025.1mb 67f
8:30am 9 14 mph 1025.1mb 66f
8:20am 10 14 mph 1025.1mb 66f
8:10am 11 16 mph 1025.4mb 65f
8:00am 9 13 mph 1025.4mb 65f
7:50am 7 11 mph 1025.4mb 64f
7:40am 7 10 mph 1025.7mb 63f
7:30am 8 11 mph 1026.1mb 62f
7:20am 6 9 mph 1026.1mb 61f
7:10am 7 10 mph 1026.1mb 61f
7:00am 6 11 mph 1026.1mb 60f
6:50am 6 9 mph 1026.1mb 60f
6:40am 6 9 mph 1026.1mb 59f
6:30am 6 9 mph 1026.1mb 58f
6:20am 5 7 mph 1026.1mb 57f
6:10am 5 7 mph 1026.1mb 56f
6:00am 5 8 mph 1026.1mb 56f
5:50am 3 7 mph 1025.7mb 56f
5:40am 5 8 mph 1025.7mb 55f
5:30am 5 8 mph 1025.4mb 55f
5:20am 5 7 mph 1025.4mb 55f
5:10am 5 7 mph 1025.1mb 55f
5:00am 6 8 mph 1024.7mb 54f
4:50am 5 8 mph 1024.7mb 54f
4:40am 5 8 mph 1024.7mb 55f
4:30am 6 9 mph 1024.7mb 54f
4:20am 6 10 mph 1024.7mb 55f
4:10am 6 9 mph 1024.7mb 55f
4:00am 5 9 mph 1024.7mb 55f
3:50am 6 9 mph 1024.7mb 55f
3:40am 7 10 mph 1024.7mb 55f
3:30am 6 9 mph 1024.7mb 55f
3:20am 6 9 mph 1024.7mb 56f
3:10am 5 9 mph 1024.7mb 56f
3:00am 7 11 mph 1024.7mb 56f
2:50am 8 13 mph 1024.4mb 56f
2:40am 8 13 mph 1024.7mb 57f
2:30am 9 14 mph 1024.4mb 57f
2:20am 8 14 mph 1024.7mb 57f
2:10am 9 14 mph 1024.7mb 56f
2:00am 9 14 mph 1024.7mb 56f
1:50am 9 13 mph 1024.7mb 56f
1:40am 9 13 mph 1024.7mb 56f
1:30am 9 14 mph 1024.7mb 56f
1:20am 9 14 mph 1024.7mb 56f
1:10am 8 11 mph 1025.1mb 56f
1:00am 8 14 mph 1024.7mb 56f
12:50am 8 13 mph 1024.7mb 56f
12:40am 9 13 mph 1025.1mb 56f
12:30am 9 13 mph 1025.1mb 56f
12:20am 9 14 mph 1025.1mb 56f
12:10am 9 13 mph 1025.1mb 56f
12:00am 9 15 mph 1025.1mb 56f
Sat 05/23 11:50pm 8 13 mph 1025.4mb 56f
11:40pm 9 14 mph 1025.1mb 56f
11:30pm 9 13 mph 1025.4mb 56f
11:20pm 10 14 mph 1025.1mb 56f
11:10pm 9 15 mph 1025.1mb 56f
11:00pm 9 14 mph 1025.4mb 56f
10:50pm 8 13 mph 1025.4mb 56f
10:40pm 9 13 mph 1025.4mb 56f
10:30pm 10 14 mph 1025.4mb 56f
10:20pm 8 14 mph 1025.4mb 57f
10:10pm 9 14 mph 1025.4mb 57f
10:00pm 9 17 mph 1025.4mb 57f
9:50pm 10 15 mph 1025.4mb 58f
9:40pm 9 17 mph 1025.4mb 58f
9:30pm 10 17 mph 1025.4mb 58f
9:20pm 9 17 mph 1025.4mb 58f
9:10pm 10 17 mph 1025.4mb 58f
9:00pm 8 15 mph 1025.4mb 58f
8:50pm 10 15 mph 1025.4mb 59f
8:40pm 9 14 mph 1025.4mb 59f
8:30pm 9 13 mph 1025.4mb 59f
8:20pm 10 17 mph 1025.1mb 60f
8:10pm 10 15 mph 1025.1mb 60f
8:00pm 9 15 mph 1025.1mb 61f
7:50pm 10 15 mph 1025.1mb 61f
7:40pm 10 15 mph 1025.1mb 61f
7:30pm 9 15 mph 1025.1mb 62f
7:20pm 9 15 mph 1025.1mb 62f
7:10pm 9 14 mph 1025.1mb 63f
7:00pm 9 15 mph 1025.1mb 63f
6:50pm 9 15 mph 1025.4mb 63f
6:40pm 10 18 mph 1025.4mb 64f
6:30pm 9 15 mph 1025.4mb 64f
6:20pm 9 20 mph 1025.4mb 64f
6:10pm 11 18 mph 1025.4mb 64f
6:00pm 11 20 mph 1025.7mb 65f
5:50pm 13 21 mph 1025.7mb 65f
5:40pm 14 23 mph 1025.7mb 64f
5:30pm 13 20 mph 1026.1mb 65f
5:20pm 11 21 mph 1026.1mb 65f
5:10pm 10 21 mph 1026.1mb 64f
5:00pm 11 20 mph 1026.4mb 64f
4:50pm 13 20 mph 1026.8mb 64f
4:40pm 14 21 mph 1026.8mb 64f
4:30pm 11 18 mph 1026.8mb 64f
4:20pm 11 18 mph 1027.1mb 64f
4:10pm 14 18 mph 1027.1mb 64f
4:00pm 14 21 mph 1027.1mb 64f
3:50pm 14 21 mph 1027.4mb 64f
3:40pm 11 17 mph 1027.4mb 64f
3:30pm 11 21 mph 1027.8mb 64f
3:20pm 11 20 mph 1027.8mb 64f
3:10pm 13 20 mph 1027.8mb 63f
3:00pm 10 17 mph 1028.1mb 63f
2:50pm 8 16 mph 1028.1mb 63f
2:40pm 9 20 mph 1028.1mb 62f
2:30pm 8 15 mph 1028.1mb 60f
2:20pm 5 9 mph 1028.4mb 55f
2:10pm 6 9 mph 1028.8mb 55f
2:00pm 8 9 mph 1028.8mb 55f
1:50pm 6 8 mph 1028.8mb 55f
1:40pm 6 7 mph 1029.1mb 55f
1:30pm 5 8 mph 1029.1mb 54f
1:20pm 5 8 mph 1029.1mb 54f
1:10pm 7 10 mph 1029.1mb 54f
1:00pm 9 11 mph 1029.5mb 54f
12:50pm 8 11 mph 1029.5mb 54f
12:40pm 10 13 mph 1029.5mb 55f
12:30pm 7 11 mph 1029.5mb 55f
12:20pm 7 14 mph 1029.5mb 55f
12:10pm 9 10 mph 1029.5mb 55f
12:00pm 7 8 mph 1029.8mb 54f
11:50am 8 10 mph 1029.8mb 54f
11:40am 8 11 mph 1030.1mb 54f
11:30am 9 11 mph 1030.1mb 53f
11:20am 9 11 mph 1030.1mb 53f
11:10am 11 14 mph 1030.1mb 53f
11:00am 10 11 mph 1030.5mb 52f
10:50am 9 11 mph 1030.5mb 51f
10:40am 6 11 mph 1030.8mb 50f
10:30am 9 11 mph 1030.8mb 49f
10:20am 8 11 mph 1030.8mb 49f
10:10am 9 10 mph 1030.8mb 49f
10:00am 7 10 mph 1030.8mb 49f
9:50am 9 11 mph 1031.2mb 47f
9:40am 8 11 mph 1031.2mb 47f
9:30am 10 14 mph 1031.2mb 47f
9:20am 9 13 mph 1031.2mb 47f
9:10am 11 14 mph 1031.2mb 48f
9:00am 11 17 mph 1031.2mb 51f
8:50am 9 16 mph 1031.2mb 50f
8:40am 11 15 mph 1031.2mb 50f
8:30am 8 13 mph 1031.2mb 49f
8:20am 9 15 mph 1031.2mb 49f
8:10am 7 13 mph 1031.2mb 49f
8:00am 9 11 mph 1031.2mb 48f
7:50am 9 14 mph 1031.2mb 47f
7:40am 8 14 mph 1031.2mb 46f
7:30am 8 15 mph 1030.8mb 46f
7:20am 7 10 mph 1030.8mb 46f
7:10am 8 10 mph 1030.8mb 45f
7:00am 5 8 mph 1030.5mb 44f
6:50am 5 9 mph 1030.5mb 44f
6:40am 7 9 mph 1030.1mb 43f
6:30am 6 9 mph 1030.1mb 42f
6:20am 6 7 mph 1030.1mb 42f
6:10am 5 9 mph 1030.1mb 42f
6:00am 6 8 mph 1030.1mb 40f
5:50am 6 8 mph 1029.8mb 40f
5:40am 8 9 mph 1029.8mb 38f
5:30am 8 9 mph 1029.8mb 38f
5:20am 7 9 mph 1029.8mb 38f
5:10am 7 10 mph 1029.8mb 37f
5:00am 8 9 mph 1029.5mb 37f
4:50am 8 10 mph 1029.5mb 37f
4:40am 7 9 mph 1029.5mb 37f
4:30am 7 10 mph 1029.5mb 37f
4:20am 7 9 mph 1029.5mb 37f
4:10am 7 10 mph 1029.1mb 37f
4:00am 8 9 mph 1029.1mb 37f
3:50am 6 8 mph 1029.1mb 38f
3:40am 6 7 mph 1029.1mb 37f
3:30am 6 8 mph 1028.8mb 38f
3:20am 6 7 mph 1028.8mb 38f
3:10am 6 7 mph 1028.8mb 38f
3:00am 5 7 mph 1028.8mb 38f
2:50am 6
mph
1028.4mb 39f
2:40am 6
mph
1028.4mb 39f
2:30am 6 7 mph 1028.4mb 40f
2:20am 5 6 mph 1028.4mb 39f
2:10am 6 8 mph 1028.4mb 39f
2:00am 2 8 mph 1028.4mb 46f
1:50am 7 9 mph 1028.1mb 46f
1:40am 8 9 mph 1028.1mb 45f
1:30am 8 9 mph 1028.1mb 45f
1:20am 7 10 mph 1028.1mb 45f
1:10am 9 11 mph 1027.8mb 46f
1:00am 10 13 mph 1027.8mb 45f
12:50am 11 13 mph 1027.8mb 45f
12:40am 10 14 mph 1027.8mb 45f
12:30am 11 14 mph 1027.8mb 45f
12:20am 9 13 mph 1027.8mb 45f
12:10am 8 10 mph 1027.8mb 45f
12:00am 8 11 mph 1027.8mb 45f
Fri 05/22 11:50pm 10 11 mph 1027.8mb 45f
11:40pm 9 13 mph 1027.8mb 45f
11:30pm 10 13 mph 1027.8mb 46f
11:20pm 11 15 mph 1027.8mb 45f
11:10pm 13 16 mph 1027.8mb 45f
11:00pm 14 16 mph 1027.4mb 46f
10:50pm 14 17 mph 1027.4mb 46f
10:40pm 16 20 mph 1027.4mb 46f
10:30pm 17 21 mph 1027.1mb 46f
10:20pm 16 20 mph 1027.1mb 45f
10:10pm 17 21 mph 1027.1mb 46f
10:00pm 17 23 mph 1027.1mb 46f
9:50pm 20 23 mph 1026.8mb 46f
9:40pm 18 21 mph 1026.8mb 45f
9:30pm 17 21 mph 1026.8mb 46f
9:20pm 17 21 mph 1026.8mb 46f
9:10pm 17 20 mph 1026.4mb 46f
9:00pm 16 18 mph 1026.1mb 46f
8:50pm 15 20 mph 1026.1mb 46f
8:40pm 17 22 mph 1025.7mb 46f
8:30pm 18 21 mph 1025.4mb 46f
8:20pm 17 24 mph 1025.1mb 46f
8:10pm 21 24 mph 1024.7mb 46f
8:00pm 20 23 mph 1024.7mb 46f
7:50pm 17 23 mph 1024.7mb 46f
7:40pm 18 22 mph 1024.4mb 46f
7:30pm 17 21 mph 1024.4mb 47f
7:20pm 16 22 mph 1024.4mb 47f
7:10pm 21 24 mph 1024.4mb 47f
7:00pm 18 25 mph 1024.4mb 47f
6:50pm 21 26 mph 1023.7mb 47f
6:40pm 17 24 mph 1023.7mb 47f
6:30pm 17 25 mph 1023.7mb 48f
6:20pm 15 18 mph 1023.4mb 47f
6:10pm 14 18 mph 1023mb 47f
6:00pm 16 20 mph 1023mb 47f
5:50pm 16 20 mph 1023mb 47f
5:40pm 16 22 mph 1022.7mb 48f
5:30pm 17 21 mph 1022.7mb 48f
5:20pm 14 20 mph 1022.7mb 48f
5:10pm 17 22 mph 1022.7mb 48f
5:00pm 17 21 mph 1022.4mb 48f
4:50pm 13 17 mph 1022.4mb 49f
4:40pm 14 20 mph 1022.4mb 49f
4:30pm 16 21 mph 1022mb 49f
4:20pm 15 22 mph 1022mb 48f
4:10pm 18 23 mph 1021.7mb 49f
4:00pm 21 26 mph 1021.3mb 49f
3:50pm 20 25 mph 1021.3mb 49f
3:40pm 21 24 mph 1021.3mb 50f
3:30pm 20 24 mph 1021mb 50f
3:20pm 20 25 mph 1021mb 50f
3:10pm 16 18 mph 1020.7mb 50f
3:00pm 14 16 mph 1020.7mb 52f
2:50pm 14 15 mph 1020.3mb 51f
2:40pm 13 15 mph 1020mb 52f
2:30pm 11 13 mph 1020mb 55f
2:20pm 11 13 mph 1019.6mb 55f
2:10pm 10 13 mph 1019.6mb 55f
2:00pm 10 13 mph 1019.6mb 55f
1:50pm 11 13 mph 1019.6mb 55f
1:40pm 11 13 mph 1019.6mb 55f
1:30pm 11 13 mph 1019.3mb 54f
1:20pm 13 14 mph 1019.3mb 54f
1:10pm 11 13 mph 1019.3mb 54f
1:00pm 10 13 mph 1019.3mb 53f
12:50pm 9 11 mph 1019.3mb 53f
12:40pm 9 10 mph 1019.3mb 53f
12:30pm 9 10 mph 1019mb 52f
12:20pm 8 9 mph 1019mb 52f
12:10pm 7 8 mph 1019.3mb 52f
12:00pm 8 9 mph 1019mb 51f
11:50am 8 9 mph 1019.3mb 51f
11:40am 7 9 mph 1019.3mb 51f
11:30am 8
mph
1019.3mb 50f
11:20am 6 8 mph 1019.3mb 50f
11:10am 7 8 mph 1019.3mb 50f
11:00am 7 8 mph 1019mb 49f
10:50am 6 7 mph 1019mb 49f
10:40am 6 9 mph 1019mb 48f
10:30am 7 9 mph 1019mb 47f
10:20am 8 9 mph 1019mb 47f
10:10am 7 9 mph 1019mb 47f
10:00am 8 9 mph 1019mb 47f
9:50am 8 10 mph 1019mb 47f
9:40am 9 10 mph 1019mb 47f
9:30am 7 9 mph 1018.6mb 48f
9:20am 7 9 mph 1018.6mb 48f
9:10am 7 9 mph 1018.6mb 47f
9:00am 7 9 mph 1018.3mb 47f
8:50am 8 9 mph 1018.3mb 47f
8:40am 8 9 mph 1018.3mb 47f
8:30am 8 10 mph 1018.3mb 46f
8:20am 9 11 mph 1017.9mb 46f
8:10am 9 11 mph 1017.9mb 46f
8:00am 8 10 mph 1017.9mb 46f
7:50am 7 10 mph 1017.6mb 46f
7:40am 8 9 mph 1017.6mb 46f
7:30am 9 11 mph 1017.3mb 46f
7:20am 9 11 mph 1017.3mb 46f
7:10am 9 13 mph 1016.9mb 46f
7:00am 10 15 mph 1016.9mb 47f
6:50am 11 15 mph 1016.9mb 47f
6:40am 13 14 mph 1016.6mb 47f
6:30am 13 14 mph 1016.6mb 47f
6:20am 11 15 mph 1016.3mb 48f
6:10am 13 15 mph 1016.3mb 48f
6:00am 13 15 mph 1015.9mb 48f
5:50am 13 15 mph 1015.9mb 48f
5:40am 13 15 mph 1015.6mb 48f
5:30am 14 16 mph 1015.6mb 48f
5:20am 14 16 mph 1015.2mb 48f
5:10am 16 17 mph 1014.9mb 48f
5:00am 15 17 mph 1014.9mb 48f
4:50am 17 20 mph 1014.6mb 49f
4:40am 17 22 mph 1014.6mb 49f
4:30am 18 22 mph 1014.2mb 49f
4:20am 21 23 mph 1014.2mb 50f
4:10am 21 24 mph 1013.9mb 50f
4:00am 21 24 mph 1013.5mb 51f
3:50am 20 24 mph 1013.5mb 51f
3:40am 20 23 mph 1013.2mb 52f
3:30am 22 25 mph 1012.9mb 52f
3:20am 20 23 mph 1012.5mb 53f
3:10am 20 25 mph 1012.9mb 53f
1:00am 8 11 mph 1012.2mb 53f
12:50am 8 13 mph 1012.2mb 53f
12:40am 9 14 mph 1012.2mb 53f
12:30am 8 16 mph 1012.2mb 53f
12:20am 9 15 mph 1012.2mb 53f